Vertical_Velocity
1 3 6 13 -17 16 5 34 -14 0 10 -12 7 9 2 -4 8 -4 -5 -5 -3 -1 -0 -0 1 0 1 -2 1 -1 -2 1 -1 -1 -0 0 -1 -2 -0 -1 -2 -1 -1 -2 -2 -1 -1 -1 -2
9 6 4 -24 9 1 -5 2 -23 21 -6 21 -7 -9 -5 -3 3 -10 -4 -2 1 1 -2 -0 -1 -2 -1 -4 0 2 -5 -0 -1 0 -1 -3 -1 -2 -2 -0 -1 -1 -2 -2 -1 -1 -2 -1 -2
10 4 35 -10 42 -9 16 13 -7 -2 1 -6 -3 16 -4 -4 3 -2 -2 -0 -7 -0 -4 0 -1 2 -1 -0 0 -3 -1 -2 -0 -2 -1 -2 -3 -0 -1 -2 0 -2 -2 -0 2 -4 -3 -1 -3
9 6 2 26 2 9 -2 -10 -11 5 -11 -9 -7 -5 -4 6 -9 -2 -7 -7 -3 -4 0 -1 -1 -1 -3 -1 -1 -1 -2 0 -2 -2 -1 -2 -1 -1 -2 -1 -0 -0 -1 2 1 0 0 0 -0
-28 -91 11 -7 8 -3 -5 11 -28 -26 15 -4 -4 -5 3 8 -8 14 -7 1 3 -0 1 -1 -1 -1 -0 0 -1 -2 -1 -2 -1 -2 -1 -3 -1 -2 -1 0 -2 -3 -1 1 2 3 3 3 -0
64 -5 14 -2 8 5 -5 -13 7 12 3 -2 -8 -0 -1 -4 -3 16 -8 4 1 -4 -1 -1 -1 0 -2 -2 -1 -2 -1 -1 -2 -3 -2 -2 -2 -2 0 -0 -1 0 1 3 -1 -4 -6 -3 -0
-92 -0 30 3 -2 -13 3 20 -1 -3 12 18 -12 -9 -4 1 -2 1 -8 -2 -2 3 0 1 -1 -1 -2 -2 -1 -1 -0 -1 -2 -3 -2 -2 -2 -1 -1 -3 -2 1 4 -6 1 1 3 -1 -1
5 -22 23 12 2 10 0 1 23 16 -8 8 -9 -8 -0 -12 28 -4 -1 -4 -0 -0 1 -1 -3 -2 -1 -2 -1 -1 -0 0 -1 -3 -2 -1 -2 -2 -0 -0 -2 3 -2 -1 -3 -1 2 3 1
2 7 7 8 -10 -5 6 -6 -12 -18 -4 0 12 -0 -5 -1 -12 -5 -13 2 -1 -1 -3 -2 -1 -1 -3 -2 -1 -3 -3 -3 -2 -1 0 -2 -0 -0 0 -1 -2 2 -6 4 -5 -1 -7 -1 -4
19 1 2 1 -12 9 11 -10 9 -10 9 -3 1 -4 -3 0 -2 -5 -12 -2 -1 -6 -3 -2 -2 0 -2 -1 -3 0 -1 -2 -2 -2 -2 -0 4 -0 2 -4 -1 3 -5 2 -6 -3 -5 -11 -2
11 3 1 22 15 -4 -10 -16 32 -10 -1 -2 -5 -2 -2 -4 12 -1 -3 5 -1 -2 -3 -1 3 -3 -1 -3 -1 -1 -2 -1 -2 1 1 -2 -5 -1 -4 1 -2 3 1 -1 0 -10 -6 -2 8
-4 -6 -3 -3 -19 10 -0 8 -2 26 -1 -5 -4 -2 -2 -6 9 1 3 2 7 -5 -1 -1 -4 -0 -1 -2 -5 -5 -7 -2 -0 -1 -2 -3 -2 -5 -1 -2 -3 8 5 -3 2 3 -12 -9 -5
-20 -6 -16 1 -14 -14 5 2 -9 -3 0 -3 -2 -3 -5 6 -1 9 8 -4 -3 -2 -0 1 2 1 -3 0 -2 1 -2 -4 -3 3 0 3 -3 -2 -4 1 1 5 -9 -12 3 8 5 7 7
6 30 -8 9 -5 -1 -8 -3 -10 -1 -5 -2 -3 -2 5 -6 9 -3 -1 -5 -1 -2 -3 -4 -1 -2 -0 -0 -2 -1 3 11 -1 1 1 -4 -1 -2 -2 -4 2 8 0 -2 -8 5 -5 8 7
-17 -4 37 -12 13 -25 6 25 -1 -1 -6 -6 -3 -4 7 -5 -2 -6 -2 -1 -0 2 1 1 0 -1 -1 -1 -1 -0 2 -1 -4 -0 1 1 1 -2 2 -4 -0 2 9 12 8 -7 0 3 9
-11 1 22 -7 25 -23 -31 2 -2 -2 -4 -5 9 3 -5 -1 -9 -5 -2 -2 -2 -1 -3 -1 -3 -2 -1 -1 -0 -1 -4 -4 -1 -0 1 1 -1 -2 -1 -0 -5 -1 0 2 -9 -5 10 8 5
-36 14 27 4 19 -2 -18 6 0 -4 -1 -3 -3 3 0 -1 3 -3 1 -0 -2 -4 -1 0 -1 -3 -2 -1 -1 -0 1 -2 1 -2 -3 -1 -2 0 -3 -4 -2 -2 -2 -3 -3 5 1 4 6
35 41 -6 3 0 104 -41 16 4 -6 -1 -4 -1 -2 -1 -3 5 -7 -0 -1 -1 -2 -0 -1 -0 -3 -1 0 -0 -1 -4 -5 -5 -4 -3 -1 -3 -3 -1 -1 -1 -3 -2 -1 3 -1 5 2 -1
-9 -9 15 6 -5 40 8 5 -2 -7 3 1 -9 1 -3 -2 -6 3 -0 -2 4 -1 0 -1 -2 -3 -4 -3 -0 1 -6 -2 0 -3 -0 -2 -2 -0 -1 -1 -0 -6 -4 -2 -2 -4 -2 1 1
-9 18 31 -10 -16 -7 6 14 -6 -8 -1 -3 -5 -2 -1 -6 0 -2 -2 0 1 -6 -1 0 0 1 1 1 2 0 0 -1 3 2 2 0 -0 0 0 1 -3 -2 2 0 -1 -1 -3 -5 -1
17 20 -4 3 -21 -17 20 15 15 -4 1 5 2 -3 -1 -3 1 -4 -4 -1 -3 -6 -2 -2 -0 -1 -2 -1 -2 -2 -1 -3 -2 -3 -1 -2 1 1 0 0 1 -0 1 -2 3 1 1 -0 -2
24 28 -10 9 1 -12 -9 -3 -17 15 -10 -10 -7 5 -9 -5 -3 0 -1 -1 -3 -4 -1 -0 -2 -1 -1 -2 -0 -1 -1 -0 0 2 1 -2 -1 0 3 3 -1 -1 -1 1 0 2 -2 2 10
-1 -10 4 -10 13 42 -10 17 -23 18 3 -3 -18 4 4 -7 -11 -8 -6 -1 3 -2 -5 -1 0 -1 -2 -1 -2 -1 -1 -0 -3 -3 -3 -3 -3 -3 -2 -2 -1 1 1 1 1 -3 0 3 -2
-15 -14 -5 -12 -9 10 14 4 8 -2 -12 4 -2 -2 4 3 -5 -5 -1 2 -8 0 -3 -3 0 -1 -0 -1 -1 -0 0 -0 -1 1 1 -0 3 3 1 -1 1 1 1 2 -0 1 0 3 -1
-2 -4 1 11 12 -8 9 -4 -10 -2 -0 -12 -2 -10 -9 16 4 -5 -7 -5 -0 -8 -6 -2 2 2 0 -2 -3 -1 -1 1 1 -0 -1 -1 -1 -3 -6 -1 3 2 4 2 -2 -1 -0 -2 -0
8 -7 10 0 1 3 20 -5 15 -1 -22 7 32 8 -1 -9 -4 12 -4 -9 -4 -6 -8 -0 -2 2 1 1 0 -1 -3 -1 1 -0 1 2 1 4 -6 -3 -6 -2 -1 -2 -2 -2 -3 -1 -4
-38 18 -17 12 -4 22 -20 27 7 -5 -10 -17 -4 -18 -20 -8 26 -5 19 1 -3 -4 -7 -2 -4 6 2 0 0 1 0 0 -0 1 2 1 0 2 1 2 3 1 1 -0 -1 -0 -0 -4 1
5 -19 23 13 2 -3 -8 5 -10 -3 -4 -16 -8 -2 8 -7 -6 -13 6 4 -1 -3 -3 -4 -2 2 1 -1 1 1 1 -1 -1 1 -0 -1 2 2 0 -1 2 2 -2 -0 -1 -1 -2 -0 -2
2 -4 -2 8 27 1 -0 -12 36 4 -2 -11 -4 8 -9 -7 -12 -3 -12 12 4 -2 -3 -2 -5 -4 2 1 -0 3 1 -0 0 1 5 -0 2 -0 -1 2 1 1 1 1 4 2 1 -0 2
10 -6 5 19 -26 -12 15 11 -11 -28 -8 -7 -5 -4 16 -14 -5 -5 -1 -5 -6 -3 -1 -1 -3 0 -3 1 -0 -3 0 4 1 4 4 2 -4 -5 -3 1 0 1 2 2 9 10 22 24 13
Height
3175 3175 3176 3172 3172 3176 3176 3180 3178 3182 3185 3186 3187 3185 3186 3185 3187 3190 3192 3191 3193 3195 3196 3198 3200 3202 3203 3204 3205 3205 3207 3207 3208 3207 3207 3207 3207 3208 3209 3209 3209 3211 3211 3213 3213 3214 3214 3213 3214
3175 3176 3176 3174 3174 3176 3178 3180 3181 3184 3186 3188 3188 3188 3189 3188 3188 3188 3194 3195 3195 3197 3198 3201 3203 3203 3204 3206 3207 3208 3208 3209 3209 3209 3209 3210 3210 3210 3211 3211 3212 3213 3214 3214 3215 3216 3216 3216 3216
3181 3179 3172 3171 3177 3178 3180 3181 3184 3187 3188 3189 3191 3190 3191 3191 3194 3195 3196 3197 3196 3198 3200 3202 3204 3205 3206 3207 3208 3209 3210 3210 3210 3210 3211 3212 3212 3212 3213 3213 3214 3215 3216 3217 3217 3218 3218 3218 3219
3184 3181 3180 3184 3179 3181 3183 3184 3187 3188 3191 3189 3191 3192 3195 3195 3195 3197 3196 3198 3199 3199 3201 3204 3205 3207 3208 3208 3209 3210 3211 3211 3212 3212 3213 3214 3214 3214 3215 3216 3217 3218 3219 3219 3219 3219 3220 3221 3220
3181 3180 3179 3184 3180 3182 3185 3186 3187 3189 3193 3192 3192 3194 3198 3198 3198 3202 3199 3201 3201 3201 3202 3204 3206 3208 3210 3211 3211 3212 3212 3213 3213 3214 3215 3216 3216 3217 3218 3218 3220 3220 3220 3221 3221 3222 3222 3222 3222
3173 3174 3183 3184 3182 3183 3187 3188 3190 3192 3194 3196 3195 3197 3199 3199 3201 3202 3202 3202 3203 3202 3203 3204 3207 3210 3212 3212 3213 3214 3214 3215 3216 3216 3217 3218 3219 3219 3220 3221 3222 3222 3223 3223 3224 3224 3223 3223 3223
3177 3170 3184 3185 3184 3186 3189 3190 3192 3194 3196 3198 3197 3198 3201 3203 3204 3202 3203 3205 3204 3205 3205 3206 3209 3212 3213 3214 3215 3215 3216 3217 3218 3219 3220 3220 3220 3221 3222 3223 3224 3224 3224 3225 3225 3225 3224 3224 3223
3187 3187 3188 3187 3185 3189 3191 3192 3194 3196 3198 3199 3198 3199 3202 3204 3204 3204 3204 3204 3205 3207 3207 3209 3211 3213 3215 3216 3216 3217 3218 3219 3220 3221 3222 3222 3222 3223 3224 3225 3225 3226 3226 3226 3226 3225 3224 3223 3224
3197 3190 3188 3185 3187 3191 3192 3193 3195 3197 3200 3201 3200 3201 3203 3205 3205 3205 3204 3205 3207 3209 3210 3212 3213 3215 3216 3217 3218 3219 3219 3221 3222 3223 3223 3223 3223 3225 3225 3226 3227 3227 3227 3227 3226 3225 3224 3224 3224
3195 3193 3188 3187 3191 3192 3194 3195 3197 3200 3202 3202 3201 3202 3202 3206 3207 3208 3208 3207 3209 3208 3210 3213 3214 3216 3217 3218 3219 3220 3221 3222 3223 3224 3224 3223 3224 3225 3226 3227 3227 3227 3227 3227 3226 3225 3225 3225 3226
3199 3195 3192 3192 3193 3194 3196 3197 3201 3200 3202 3202 3201 3201 3204 3208 3210 3211 3209 3211 3210 3211 3212 3214 3216 3216 3218 3219 3221 3221 3222 3223 3224 3225 3225 3225 3224 3225 3225 3227 3227 3226 3226 3226 3225 3224 3225 3225 3225
3201 3199 3197 3197 3197 3197 3198 3200 3201 3201 3203 3202 3202 3204 3206 3209 3213 3212 3214 3215 3214 3213 3214 3215 3216 3218 3219 3220 3220 3221 3223 3224 3225 3225 3226 3226 3226 3225 3226 3227 3226 3226 3225 3226 3226 3226 3224 3224 3224
3201 3201 3202 3201 3200 3199 3201 3202 3203 3203 3204 3203 3203 3206 3209 3213 3215 3217 3217 3215 3214 3215 3216 3217 3218 3219 3220 3221 3222 3225 3224 3225 3225 3227 3227 3227 3226 3226 3225 3226 3226 3226 3229 3223 3231 3230 3229 3227 3227
3200 3204 3205 3204 3202 3202 3202 3202 3203 3205 3205 3205 3206 3209 3212 3214 3216 3216 3216 3214 3215 3216 3216 3217 3218 3219 3221 3222 3222 3224 3225 3226 3227 3226 3227 3226 3226 3226 3226 3225 3226 3225 3228 3230 3228 3229 3229 3228 3228
3199 3199 3205 3204 3204 3206 3204 3204 3203 3205 3205 3207 3209 3211 3213 3214 3213 3214 3215 3214 3215 3217 3218 3218 3219 3220 3221 3223 3223 3224 3225 3227 3227 3227 3227 3227 3227 3226 3227 3226 3225 3225 3227 3227 3227 3224 3226 3227 3227
3208 3201 3202 3205 3204 3204 3203 3204 3203 3205 3206 3208 3211 3213 3213 3213 3212 3212 3213 3214 3215 3217 3217 3218 3218 3219 3221 3222 3223 3223 3224 3226 3226 3225 3226 3226 3227 3227 3227 3227 3225 3224 3225 3226 3226 3225 3226 3225 3224
3209 3201 3199 3200 3199 3199 3198 3201 3202 3205 3207 3209 3211 3213 3214 3214 3214 3213 3214 3214 3215 3216 3217 3218 3218 3219 3220 3221 3222 3223 3224 3224 3225 3224 3225 3226 3226 3227 3226 3225 3225 3224 3224 3224 3225 3225 3224 3224 3222
3197 3197 3198 3197 3201 3199 3194 3203 3202 3205 3208 3209 3210 3212 3213 3214 3215 3214 3215 3215 3215 3215 3217 3218 3219 3219 3220 3221 3222 3222 3222 3223 3223 3224 3224 3225 3225 3225 3225 3225 3224 3224 3223 3223 3223 3223 3222 3221 3220
3199 3196 3195 3197 3199 3198 3194 3200 3202 3205 3208 3208 3209 3211 3212 3213 3214 3214 3215 3216 3217 3215 3217 3218 3219 3220 3220 3222 3223 3223 3222 3223 3224 3223 3223 3224 3225 3224 3224 3225 3224 3223 3224 3223 3223 3223 3222 3221 3220
3199 3197 3196 3198 3199 3199 3199 3199 3201 3204 3206 3207 3208 3210 3211 3212 3213 3213 3214 3216 3217 3214 3216 3217 3218 3219 3220 3221 3222 3222 3223 3223 3224 3223 3223 3223 3223 3223 3224 3224 3225 3225 3224 3224 3222 3222 3221 3220 3219
3196 3195 3196 3195 3196 3197 3198 3200 3200 3202 3206 3207 3208 3209 3210 3211 3212 3212 3212 3214 3215 3214 3215 3216 3218 3219 3220 3221 3221 3222 3223 3223 3223 3223 3222 3222 3223 3224 3224 3225 3224 3225 3224 3223 3223 3221 3220 3220 3218
3195 3194 3195 3195 3194 3196 3195 3197 3198 3200 3203 3205 3207 3209 3210 3210 3211 3211 3212 3213 3214 3214 3214 3215 3216 3218 3219 3220 3221 3222 3223 3223 3224 3224 3223 3222 3223 3223 3223 3223 3224 3223 3223 3222 3220 3221 3219 3219 3217
3196 3196 3195 3193 3190 3189 3190 3194 3191 3196 3199 3201 3204 3205 3207 3207 3209 3211 3212 3213 3214 3213 3213 3214 3215 3217 3218 3219 3220 3222 3223 3224 3223 3223 3223 3223 3223 3223 3223 3223 3223 3222 3222 3221 3220 3219 3218 3217 3215
3196 3197 3194 3191 3188 3182 3176 3181 3184 3189 3192 3196 3199 3202 3204 3204 3206 3207 3210 3211 3213 3214 3213 3213 3214 3216 3217 3219 3219 3221 3222 3222 3223 3224 3224 3224 3224 3223 3223 3222 3222 3221 3220 3219 3217 3217 3216 3215 3213
3194 3196 3190 3187 3181 3174 3175 3179 3181 3187 3190 3192 3194 3197 3202 3204 3204 3204 3207 3210 3211 3212 3212 3212 3213 3215 3216 3217 3218 3219 3220 3220 3221 3222 3223 3223 3223 3222 3221 3221 3221 3220 3219 3218 3217 3215 3214 3212 3210
3191 3192 3185 3179 3174 3182 3178 3178 3179 3182 3188 3191 3193 3196 3199 3202 3204 3203 3203 3205 3208 3209 3209 3211 3212 3213 3214 3216 3217 3217 3218 3219 3220 3220 3220 3221 3222 3222 3221 3221 3220 3219 3219 3217 3215 3214 3212 3210 3208
3188 3186 3184 3179 3174 3173 3171 3176 3179 3181 3186 3190 3194 3195 3198 3200 3202 3204 3202 3203 3204 3206 3206 3207 3208 3211 3212 3213 3214 3216 3217 3218 3219 3218 3218 3218 3218 3220 3220 3220 3219 3218 3217 3216 3214 3212 3209 3207 3205
3183 3185 3183 3177 3177 3174 3167 3167 3170 3174 3180 3185 3190 3193 3196 3198 3200 3201 3203 3201 3203 3204 3205 3204 3205 3207 3210 3210 3212 3213 3215 3216 3216 3215 3215 3215 3216 3217 3218 3217 3217 3216 3214 3213 3211 3209 3207 3204 3202
3178 3180 3179 3178 3174 3172 3169 3165 3160 3165 3173 3180 3185 3189 3192 3196 3197 3198 3199 3202 3202 3202 3202 3203 3202 3203 3206 3207 3208 3210 3212 3213 3213 3212 3210 3211 3212 3213 3214 3215 3214 3212 3210 3208 3206 3204 3202 3199 3198
3169 3172 3175 3176 3175 3170 3166 3169 3165 3174 3176 3179 3182 3186 3188 3192 3195 3195 3197 3196 3198 3198 3199 3199 3199 3201 3201 3203 3204 3205 3208 3210 3209 3210 3207 3204 3204 3208 3210 3211 3210 3208 3206 3203 3201 3199 3195 3192 3192